EHI
0 0 0 0 0 0 0 0 0 0 1 1 1 0 0 0 0 0 1 1 1 0 0 0 0 0 0 0 0 0 0 0 0 0 0 0 0 0 0 0 0 0 0
0 0 0 0 0 0 0 0 0 0 0 0 0 0 0 0 0 0 0 0 0 0 0 0 0 0 0 0 0 0 0 0 0 0 0 0 0 0 0 0 0 0 0
0 0 0 0 0 0 0 0 0 0 0 0 0 0 0 0 0 0 0 0 0 0 0 0 0 0 0 0 0 0 0 0 0 0 0 0 0 0 0 0 0 0 0
0 0 0 0 0 0 0 0 0 0 0 0 0 0 0 0 0 0 0 0 0 0 0 0 0 0 0 0 0 0 0 0 0 0 0 0 0 0 0 0 0 0 0
0 0 0 0 0 0 0 0 0 0 0 0 0 0 0 0 0 0 0 0 0 0 0 0 0 0 0 0 0 0 0 0 0 0 0 0 0 0 0 0 0 0 0
0 0 0 0 0 0 0 0 0 0 0 0 0 0 0 0 0 0 0 0 0 0 0 0 0 0 0 0 0 0 0 0 0 0 0 0 0 0 0 0 0 0 0
0 0 0 0 0 0 0 0 0 0 0 0 0 0 0 0 0 0 0 0 0 0 0 0 0 0 0 0 0 0 0 0 0 0 0 0 0 0 0 0 0 0 0
0 0 0 0 0 0 0 0 0 0 0 0 0 0 0 0 0 0 0 0 0 0 0 0 0 0 0 0 0 0 0 0 0 0 0 0 0 0 0 0 0 0 0
0 0 0 0 0 0 0 0 0 0 0 0 0 0 0 0 0 0 0 0 0 0 0 0 0 0 0 0 0 0 0 0 0 0 0 0 0 0 0 0 0 0 0
0 0 0 0 0 0 0 0 0 0 0 0 0 0 0 0 0 0 0 0 0 0 0 0 0 0 0 0 0 0 0 0 0 0 0 0 0 0 0 0 0 0 0
0 0 0 0 0 0 0 0 0 0 0 0 0 0 0 0 0 0 0 0 0 0 0 0 0 0 0 0 0 0 0 0 0 0 0 0 0 0 0 0 0 0 0
0 0 0 0 0 0 0 0 0 0 0 0 0 0 0 0 0 0 0 0 0 0 0 0 0 0 0 0 0 0 0 0 0 0 0 0 0 0 0 0 0 0 0
0 0 0 0 0 0 0 0 0 0 0 0 0 0 0 0 0 0 0 0 0 0 0 0 0 0 0 0 0 0 0 0 0 0 0 0 0 0 0 0 0 0 0
0 0 0 0 0 0 0 0 0 0 0 0 0 0 0 0 0 0 0 0 0 0 0 0 0 0 0 0 0 0 0 0 0 0 0 0 0 0 0 0 0 0 0
0 0 0 0 0 0 0 0 0 0 0 0 0 0 0 0 0 0 0 0 0 0 0 0 0 0 0 0 0 0 0 0 0 0 0 0 0 0 0 0 0 0 0
0 0 0 0 0 0 0 0 0 0 0 0 0 0 0 0 0 0 0 0 0 0 0 0 0 0 0 0 0 0 0 0 0 0 0 0 0 0 0 0 0 0 0
0 0 0 0 0 0 0 0 0 0 0 0 0 0 0 0 0 0 0 0 0 0 0 0 0 0 0 0 0 0 0 0 0 0 0 0 0 0 0 0 0 0 0
0 0 0 0 0 0 0 0 0 0 0 0 0 0 0 0 0 0 0 0 0 0 0 0 0 0 0 0 0 0 0 0 0 0 0 0 0 0 0 0 0 0 0
0 0 0 0 0 0 0 0 0 0 0 0 0 0 0 0 0 0 0 0 0 0 0 0 0 0 0 0 0 0 0 0 0 0 0 0 0 0 0 0 0 0 0
0 0 0 0 0 0 0 0 0 0 0 0 0 0 0 0 0 0 0 0 0 0 0 0 0 0 0 0 0 0 0 0 0 0 0 0 0 0 0 0 0 0 0
0 0 0 0 0 0 0 0 0 0 0 0 0 0 0 0 0 0 0 0 0 0 0 0 0 0 0 0 0 0 0 0 0 0 0 0 0 0 0 0 0 0 0
0 0 0 0 0 0 0 0 0 0 0 0 0 0 0 0 0 0 0 0 0 0 0 0 0 0 0 0 0 0 0 0 0 0 0 0 0 0 0 0 0 0 0
0 0 0 0 0 0 0 0 0 0 0 0 0 0 0 0 0 0 0 0 0 0 0 0 0 0 0 0 0 0 0 0 0 0 0 0 0 0 0 0 0 0 0
0 0 0 0 0 0 0 0 0 0 0 0 0 0 0 0 0 0 0 0 0 0 0 0 0 0 0 0 0 0 0 0 0 0 0 0 0 0 0 0 0 0 0
0 0 0 0 0 0 0 0 0 0 0 0 0 0 0 0 0 0 0 0 0 0 0 0 0 0 0 0 0 0 0 0 0 0 0 0 0 0 0 0 0 0 0
0 0 0 0 0 0 0 0 0 0 0 0 0 0 0 0 0 0 0 0 0 0 0 0 0 0 0 0 0 0 0 0 0 0 0 0 0 0 0 0 0 0 0
Wind_Speed
2 1 1 1 1 1 2 3 3 3 3 3 2 2 2 2 1 1 1 1 1 0 1 1 2 1 1 2 2 2 2 2 1 2 2 2 3 3 3 2 2 2 2
2 1 1 0 1 1 2 3 4 4 4 2 2 2 2 1 1 1 1 1 1 0 0 0 1 1 2 2 2 1 2 1 2 2 2 2 4 4 3 3 3 3 2
3 1 1 1 1 2 2 1 2 3 3 3 2 2 2 2 1 1 1 1 1 1 0 1 1 1 1 2 2 3 3 2 2 2 2 2 3 1 3 4 3 3 3
3 1 1 1 2 2 1 1 2 2 2 3 3 4 3 3 2 1 1 2 2 1 1 2 2 2 2 2 2 2 3 3 3 2 3 3 2 2 2 3 3 3 4
2 1 1 1 1 1 1 1 1 2 2 2 3 3 3 2 2 2 2 2 2 2 2 2 2 2 3 3 3 3 3 2 3 3 2 3 3 4 3 3 2 3 3
2 1 1 0 0 0 1 1 1 1 2 1 2 2 2 2 2 2 3 3 2 2 2 2 2 3 3 3 3 3 4 3 4 3 2 3 3 3 4 4 4 3 3
2 1 1 0 0 0 1 1 1 1 1 1 1 1 2 2 2 2 3 3 3 3 3 3 3 3 3 4 3 4 4 4 4 4 3 3 4 3 4 4 4 4 3
1 1 1 1 1 1 1 1 1 1 1 1 1 1 1 2 2 2 2 3 3 3 4 4 4 4 4 4 4 3 4 4 4 5 5 4 4 4 4 4 4 5 4
1 1 1 1 1 1 1 1 1 1 1 1 2 2 2 2 2 2 3 3 2 2 3 4 4 4 4 4 4 4 4 4 4 4 5 4 4 4 4 4 4 4 5
2 1 1 1 1 1 1 1 2 2 2 2 2 2 2 2 2 3 3 3 3 3 3 3 4 4 4 4 4 4 4 5 4 4 4 5 4 3 3 4 4 5 6
2 2 2 2 1 1 1 2 2 2 2 3 3 3 3 3 3 3 3 3 3 3 3 4 4 4 4 4 5 5 5 5 5 5 5 5 5 4 4 4 4 5 5
3 2 2 2 2 2 2 2 3 3 3 3 3 3 3 3 3 4 4 4 4 3 4 4 4 4 4 5 5 5 5 6 6 6 6 6 4 6 5 4 5 5 6
2 2 2 2 2 3 3 3 3 3 3 3 3 4 4 4 4 4 4 4 4 4 4 4 5 5 5 5 5 5 6 6 7 6 6 6 6 7 5 6 6 5 5
3 3 3 3 3 3 3 4 4 3 4 4 4 4 5 4 4 4 5 4 4 4 4 4 5 5 5 5 5 5 6 6 6 6 6 7 7 8 7 6 6 6 6
3 3 4 4 3 4 4 4 4 4 4 4 5 5 5 4 4 5 5 4 4 4 4 4 5 5 4 5 5 5 6 6 6 6 7 7 8 9 7 6 6 6 6
5 5 5 5 4 4 4 4 4 4 4 5 5 5 5 4 4 5 4 4 4 4 4 5 5 5 4 6 7 6 5 5 6 6 7 7 8 9 10 11 10 9 8
5 5 6 5 5 5 5 5 5 5 5 5 5 5 5 5 5 5 4 4 5 5 5 5 5 6 6 7 8 7 6 6 6 6 6 6 6 8 8 8 10 10 12
6 6 5 5 5 5 5 5 4 5 5 5 5 5 5 5 5 5 5 5 5 5 5 5 6 6 6 8 8 8 7 6 6 6 7 7 7 7 7 7 8 8 8
7 6 5 5 5 4 4 4 4 4 4 5 5 5 5 5 5 5 5 5 5 5 5 5 6 7 7 8 8 7 5 5 6 6 7 7 8 9 9 8 7 7 7
5 5 5 4 4 4 3 4 5 5 5 5 6 5 5 5 6 6 5 5 5 5 5 6 6 7 7 7 8 7 5 5 5 5 6 8 9 10 9 8 7 8 6
5 5 4 4 4 3 3 5 5 6 6 5 5 5 5 6 6 6 5 5 5 5 5 6 6 6 7 7 8 8 5 5 5 5 5 5 9 10 10 9 7 8 6
5 4 4 4 4 3 3 5 6 5 5 5 5 5 5 5 5 5 5 5 5 5 5 5 5 5 6 7 7 9 8 7 6 6 5 5 9 10 10 8 8 7 5
4 4 4 4 4 3 4 5 5 5 5 5 5 5 5 5 4 5 5 4 4 4 4 4 5 4 4 5 8 8 9 9 7 6 7 8 9 9 8 8 7 5 4
4 3 4 4 4 4 5 5 5 5 5 5 5 4 4 4 4 4 4 4 4 4 4 4 5 4 4 4 4 4 5 7 7 5 6 8 8 7 7 5 4 4 3
4 4 4 5 5 5 5 5 4 4 5 5 5 4 4 4 4 4 4 4 5 5 5 4 5 5 5 5 7 5 4 4 5 4 4 4 4 4 3 3 3 3 3
4 4 5 5 5 5 5 5 4 4 4 4 4 3 3 3 3 3 4 5 6 7 7 7 7 6 7 8 8 9 8 8 6 5 4 4 4 4 4 4 3 3 3
Wind_Direction
272 286 280 271 242 217 201 192 176 172 169 164 168 160 152 133 106 78 91 108 101 134 187 185 186 199 205 217 223 214 210 199 185 201 211 215 223 227 232 236 241 241 241
263 290 293 255 225 213 210 194 183 176 172 169 167 166 146 138 129 133 116 94 97 114 168 151 222 221 222 207 207 217 223 201 201 212 209 221 213 214 223 225 234 245 240
257 254 262 260 244 223 205 173 176 173 169 161 153 149 143 141 149 165 171 185 179 175 186 225 229 227 228 228 222 216 217 214 209 229 230 229 228 224 202 220 229 236 242
252 257 264 261 252 248 218 170 138 134 147 164 168 170 175 175 192 208 208 203 202 199 212 236 232 229 231 232 231 233 230 222 213 221 247 266 278 243 232 213 224 243 248
239 246 274 277 264 248 201 171 135 125 125 147 166 184 188 189 194 208 217 216 209 218 219 240 235 228 229 232 232 227 233 231 231 224 227 235 248 250 251 248 239 246 243
249 258 287 278 261 199 156 170 151 126 121 139 169 182 188 188 198 222 221 220 218 220 226 234 240 240 238 231 231 232 231 234 234 230 231 233 232 232 240 252 260 261 253
242 253 269 306 338 270 164 175 168 146 141 148 155 196 217 215 221 244 236 231 228 229 232 235 240 244 247 244 233 230 230 232 234 232 235 241 248 255 253 258 267 273 276
244 255 272 278 255 249 220 205 201 185 179 192 223 245 253 245 246 260 263 245 245 249 248 240 242 246 249 247 240 235 234 237 236 238 239 244 247 249 246 253 263 270 265
295 282 270 269 262 248 228 224 225 224 226 233 241 243 255 263 267 273 277 271 267 267 259 249 242 242 244 244 238 236 232 235 238 241 240 241 245 248 251 252 248 255 268
306 292 285 288 289 272 253 242 234 237 246 250 256 261 256 262 267 272 278 273 272 269 262 258 248 242 242 242 238 239 237 235 237 239 241 245 249 248 250 251 253 251 258
305 291 290 289 291 282 262 247 241 245 250 251 255 257 257 258 259 262 274 274 268 264 256 254 251 244 239 237 236 237 239 238 240 240 240 243 249 250 250 249 250 252 254
312 303 303 297 290 285 275 262 253 249 252 252 252 253 256 253 253 257 266 267 263 261 257 253 248 248 246 241 239 238 240 241 243 242 242 244 244 247 250 249 250 250 250
320 313 305 297 290 281 276 267 259 260 260 253 250 248 248 249 253 258 266 263 258 259 257 253 249 246 244 244 246 246 243 242 242 243 244 245 244 244 243 246 248 252 254
308 308 299 289 290 287 281 275 271 267 261 254 250 248 250 251 256 258 262 259 256 255 258 258 254 250 249 247 247 246 244 247 247 245 245 244 244 246 247 245 247 252 255
293 295 291 290 290 287 284 280 275 268 261 255 251 253 257 255 255 256 258 255 253 254 254 254 255 254 251 251 255 249 248 251 252 251 249 248 249 253 253 251 249 249 249
284 284 285 284 283 281 280 278 275 269 260 256 255 257 255 251 251 258 255 253 253 254 252 253 255 255 254 263 265 264 255 254 252 254 255 251 246 249 252 251 251 249 247
286 281 277 275 278 279 277 274 277 273 259 256 256 253 250 249 252 251 248 251 253 252 250 252 254 255 258 263 264 264 260 258 257 258 259 257 255 253 251 253 253 252 251
288 286 281 276 277 276 273 271 271 265 259 260 259 256 254 254 252 249 248 251 251 250 252 254 256 259 261 264 264 263 255 256 255 255 259 263 262 256 257 258 257 256 252
291 291 286 278 272 271 274 275 271 266 264 264 264 262 257 253 252 251 252 253 254 253 254 255 256 258 260 260 263 264 256 256 258 258 259 262 264 265 264 257 257 261 264
292 291 288 283 269 268 270 265 265 263 262 265 266 263 259 253 252 252 253 252 251 253 255 255 256 257 259 259 259 259 254 259 262 262 262 261 267 272 268 259 256 259 264
294 292 285 281 282 282 269 263 262 263 270 271 269 265 259 256 255 255 251 250 249 253 254 257 258 257 259 258 254 254 253 257 263 262 261 264 271 271 268 266 259 263 273
294 293 288 288 290 286 278 275 274 279 280 274 269 265 261 258 253 252 251 249 247 249 253 258 263 260 257 256 256 255 256 262 260 262 265 269 273 270 266 263 270 270 269
287 290 284 287 290 285 277 277 283 289 281 272 269 266 262 256 252 248 246 245 242 246 251 255 261 264 261 259 259 260 260 263 262 264 271 275 275 270 261 260 262 256 250
278 280 277 279 284 284 280 277 283 284 275 271 272 269 263 258 253 248 242 240 239 244 250 257 264 266 264 261 257 254 254 258 261 265 266 267 266 262 264 259 247 246 249
276 270 268 274 282 287 286 287 284 279 275 274 273 272 266 264 256 251 250 251 252 251 252 254 256 259 262 266 274 270 259 258 260 266 259 257 260 255 255 255 254 253 251
272 268 268 272 280 285 286 290 287 276 273 274 274 269 266 266 262 261 267 254 260 271 268 270 269 269 274 284 278 274 272 269 265 261 254 251 251 253 253 254 258 256 251